Vorticity
nan nan nan nan nan nan nan nan nan nan nan nan nan nan nan nan nan nan nan nan nan nan nan nan nan nan nan nan nan nan nan nan nan nan nan nan nan nan nan nan nan nan nan nan nan nan nan nan nan nan nan nan nan nan nan nan nan nan nan nan nan nan nan nan nan nan nan nan nan
nan 7 6 6 6 7 9 10 10 10 10 10 10 10 9 8 8 8 9 8 8 10 10 11 14 15 17 13 8 8 9 10 10 9 9 9 8 8 7 7 8 8 8 7 5 5 7 7 6 6 7 8 8 9 9 8 8 8 8 7 8 9 10 10 9 10 11 12 nan
nan 9 8 7 6 5 7 9 11 11 9 7 9 10 9 8 9 10 11 11 10 9 8 12 15 16 14 9 7 8 10 11 10 8 8 8 9 8 6 8 9 8 7 6 6 7 8 8 6 7 7 8 8 8 9 9 8 8 8 9 9 9 9 10 10 11 12 12 nan
nan 9 8 9 8 5 3 8 13 10 5 6 9 9 7 7 9 11 14 13 9 6 8 13 14 13 11 10 10 9 10 12 10 8 7 9 9 8 7 8 8 7 7 7 8 8 8 6 6 7 8 8 8 8 8 9 8 8 8 10 9 9 9 8 9 10 10 10 nan
nan 7 7 10 9 4 3 9 11 7 4 6 9 9 8 9 10 12 12 10 8 9 13 13 11 12 12 13 11 9 10 9 7 6 8 10 9 8 8 8 7 7 7 8 8 8 7 5 5 7 9 8 8 8 8 8 8 8 8 9 9 9 8 8 9 9 9 8 nan
nan 7 7 10 9 4 5 11 12 6 4 8 10 9 7 8 11 12 11 10 11 13 13 10 9 11 13 11 9 8 7 7 6 8 9 9 8 9 9 8 7 7 7 9 8 7 6 4 5 8 8 9 9 9 8 8 8 8 8 8 8 9 9 8 8 8 8 6 nan
nan 8 8 9 7 4 7 12 11 8 6 10 12 9 6 8 12 12 8 8 10 10 9 8 10 11 12 10 7 7 7 8 9 9 8 8 10 10 9 8 7 7 8 8 7 6 6 4 5 8 8 9 9 10 9 8 7 7 7 7 7 8 9 9 8 8 7 6 nan
nan 10 10 10 9 9 10 10 9 7 6 10 14 11 9 9 10 8 5 5 8 9 7 10 14 12 10 9 9 9 9 8 8 8 7 9 11 9 8 7 7 7 7 7 7 6 5 4 6 8 8 8 9 10 11 8 6 5 6 6 7 8 8 9 7 7 7 8 nan
nan 11 10 12 13 12 12 11 10 8 8 12 14 11 9 10 10 6 3 5 8 9 9 13 16 12 9 9 9 8 8 9 8 7 8 10 10 8 7 7 8 7 6 7 8 7 4 4 6 7 8 7 8 9 10 9 7 6 5 7 7 7 6 7 6 6 6 9 nan
nan 10 10 12 15 13 12 12 12 11 10 11 12 11 10 10 8 5 4 8 11 11 11 13 14 11 9 7 7 7 8 8 9 9 9 9 9 7 6 7 8 7 6 7 8 8 5 4 6 7 7 7 8 8 8 8 7 6 5 6 7 6 6 5 7 7 8 9 nan
nan 8 9 11 13 12 11 10 10 10 10 12 12 11 10 9 7 6 7 11 14 12 10 12 12 9 7 6 7 8 7 8 10 11 10 9 9 8 6 8 8 7 7 7 7 7 6 7 8 8 6 5 8 8 9 8 7 7 5 4 6 6 7 6 7 9 10 9 nan
nan 8 9 11 12 10 9 8 8 10 11 12 12 10 9 9 9 9 10 12 11 9 8 10 11 8 5 7 10 9 9 9 10 10 10 10 8 8 7 8 8 8 7 6 5 6 7 8 9 8 7 5 6 8 10 9 8 7 7 5 6 7 8 8 8 8 9 9 nan
nan 8 8 10 11 9 7 6 7 10 11 11 9 8 7 10 10 9 10 9 6 6 9 11 9 7 6 9 10 10 10 11 9 8 9 10 9 8 8 8 8 8 7 6 5 6 7 8 8 8 7 6 5 7 9 9 8 9 8 8 7 7 7 8 8 8 8 8 nan
nan 8 8 9 8 6 5 5 6 10 12 11 7 7 8 10 10 8 8 7 6 7 9 9 7 8 10 11 10 11 10 10 10 9 9 9 9 9 8 8 9 7 7 7 7 7 6 7 8 8 8 7 6 6 7 8 8 9 9 9 8 7 8 8 9 9 10 10 nan
nan 8 7 7 6 4 5 4 5 10 13 9 7 7 7 9 10 8 9 9 8 7 9 9 9 11 12 11 10 10 9 9 10 9 9 9 8 8 8 8 8 7 7 7 8 8 7 7 7 7 8 9 9 8 8 7 8 8 8 8 7 7 8 8 9 10 10 10 nan
nan 8 8 7 5 4 5 3 5 11 12 10 9 9 8 9 11 11 11 9 7 9 11 11 9 10 12 12 10 9 8 9 9 8 8 8 9 8 8 8 7 7 7 8 8 7 8 7 7 8 8 9 10 10 9 8 8 8 7 7 7 8 8 9 9 9 9 8 nan
nan 9 9 8 7 5 5 4 7 12 13 13 11 10 10 11 12 13 13 10 9 12 14 10 8 10 11 11 9 8 8 9 9 8 8 9 9 8 8 7 7 7 8 9 8 7 7 7 7 7 8 9 9 10 10 9 9 9 8 8 8 9 9 9 9 9 9 8 nan
nan 9 9 9 8 7 7 7 9 13 14 12 10 10 12 13 14 13 12 11 12 14 12 8 8 10 11 9 7 8 9 11 10 9 10 10 9 8 8 7 7 8 9 9 9 8 8 7 6 6 7 7 8 9 9 9 8 9 9 9 9 10 9 9 9 8 8 8 nan
nan 9 9 9 9 8 8 9 11 13 13 11 10 11 12 14 13 11 11 12 13 12 10 8 7 9 11 9 7 8 10 11 11 10 9 9 9 8 8 8 7 8 8 9 9 9 9 9 8 7 6 7 7 7 7 7 7 8 9 11 10 9 9 9 8 7 6 7 nan
nan 9 9 9 9 9 9 9 10 11 11 11 11 10 11 11 11 11 11 11 11 9 9 8 8 9 10 9 8 8 7 10 13 11 9 8 8 8 9 8 8 8 8 9 10 10 9 10 10 8 7 7 7 7 7 7 7 8 9 10 10 9 9 8 7 7 7 8 nan
nan 10 10 11 10 10 10 10 10 11 11 11 11 9 9 9 10 10 9 9 9 9 8 8 8 9 9 8 8 7 5 9 12 10 9 8 8 8 8 8 8 8 8 9 10 10 10 10 9 9 9 8 9 9 9 7 8 9 9 7 8 9 9 8 7 8 9 9 nan
nan 11 12 12 12 11 11 11 11 11 11 10 9 9 8 8 9 9 8 9 9 9 8 8 8 9 9 8 7 6 6 9 11 9 8 8 9 9 8 8 7 8 8 8 9 11 11 10 9 9 10 11 11 11 9 7 8 9 9 7 7 8 8 7 8 9 9 9 nan
nan 11 11 12 13 12 10 10 11 10 10 9 9 8 8 8 8 8 7 8 8 8 7 7 9 10 10 9 8 7 7 8 9 9 8 8 8 9 8 8 8 8 6 7 8 10 11 11 11 10 10 11 10 10 9 9 9 10 9 8 8 8 8 8 9 9 9 9 nan
nan 10 9 12 13 10 8 8 9 8 8 8 8 8 8 8 8 8 8 8 8 8 6 6 10 12 11 9 8 7 7 8 8 8 8 7 7 7 7 7 8 7 5 8 9 7 4 5 8 11 11 10 8 9 10 12 11 8 7 7 7 8 9 9 9 9 9 9 nan
nan 9 8 11 11 8 7 7 7 7 7 8 8 8 8 8 8 8 9 9 9 8 7 8 9 9 10 10 9 7 7 7 7 8 9 8 7 7 5 6 7 7 8 13 14 6 -2 -5 -2 3 7 9 8 9 11 13 10 7 5 6 7 8 9 10 10 10 10 11 nan
nan 9 9 9 9 8 8 7 7 7 7 8 9 9 8 7 8 9 10 10 9 9 8 8 8 8 8 9 9 7 6 7 8 8 9 8 8 7 5 5 6 8 13 17 16 9 3 -3 -6 -6 -2 4 7 9 11 12 11 8 8 8 8 7 7 9 9 10 10 11 nan
nan 10 9 10 10 9 8 7 8 8 8 9 9 8 8 8 9 11 10 9 8 7 7 7 8 8 7 9 10 8 6 7 9 8 8 9 9 7 4 4 6 8 15 17 14 10 7 4 -0 -5 -8 -4 3 7 8 9 11 11 11 11 10 9 9 9 10 10 10 10 nan
nan 10 10 10 10 9 8 8 9 9 9 9 8 7 8 10 10 10 9 8 6 5 5 7 7 6 6 11 12 10 7 7 8 9 9 10 9 7 4 3 6 10 15 14 11 9 7 7 5 1 -5 -8 -1 5 8 8 9 10 11 12 12 12 12 12 13 12 11 10 nan
nan 10 10 10 9 8 8 9 9 9 9 8 7 7 8 9 10 9 8 7 5 3 3 5 6 7 9 12 12 11 9 7 8 9 11 11 9 7 6 4 7 12 16 12 8 7 7 7 7 5 2 -6 -5 2 7 9 9 9 10 11 11 11 11 10 10 10 10 10 nan
nan 9 10 9 9 8 8 8 8 8 7 8 9 8 7 8 9 8 8 6 3 2 3 6 9 10 10 10 9 9 9 8 8 10 11 11 8 7 7 5 7 13 18 14 8 7 6 7 7 7 7 1 -4 -1 4 7 7 8 9 9 9 9 8 9 8 8 7 7 nan
nan 9 9 9 9 9 9 9 9 8 7 9 11 8 7 8 8 7 7 6 5 5 6 8 9 9 8 7 8 9 8 8 9 10 10 11 9 8 8 7 7 12 17 15 9 7 7 7 7 7 8 4 -0 -0 2 5 5 6 6 6 7 7 8 9 11 11 8 6 nan
nan 10 10 10 9 9 10 10 9 9 9 9 9 7 7 7 7 7 7 7 8 8 7 7 8 8 7 7 7 8 8 8 8 8 8 9 9 8 8 9 10 12 16 15 9 7 7 7 7 7 8 5 2 2 3 4 7 7 8 7 8 8 7 7 9 11 11 9 nan
nan 10 10 10 10 10 10 10 9 9 9 8 7 7 6 7 7 8 7 8 9 9 8 7 8 8 7 7 7 8 8 8 9 9 8 7 7 7 7 8 12 14 15 14 10 8 8 8 8 8 8 5 4 6 6 6 7 8 9 10 10 10 9 8 8 11 13 12 nan
nan 11 11 10 10 10 10 10 9 9 9 8 7 7 6 7 9 8 7 7 9 9 9 9 9 8 8 8 8 8 8 9 9 10 10 9 7 6 5 5 10 14 15 13 11 10 9 9 8 8 9 7 6 9 9 8 6 6 7 7 8 8 9 10 11 12 13 12 nan
nan 11 11 10 10 10 10 10 9 9 8 7 7 7 7 8 8 8 7 8 8 9 9 9 8 8 8 9 9 10 10 9 8 8 8 8 9 8 6 4 7 12 13 12 11 10 10 9 9 8 8 9 9 11 12 12 10 9 7 7 8 8 8 9 10 11 12 13 nan
nan 10 10 10 10 10 10 10 9 9 8 7 7 8 8 8 8 8 8 9 9 9 9 8 8 8 8 8 9 11 12 11 9 8 7 7 8 8 7 6 7 11 13 12 10 10 9 9 8 8 8 9 9 10 11 13 13 13 12 10 10 11 11 11 10 10 11 13 nan
nan 10 10 10 11 11 10 9 9 9 8 7 8 8 9 8 7 8 9 9 9 9 8 8 8 8 8 7 8 10 11 11 10 10 9 7 7 7 7 7 8 12 15 14 11 10 9 9 8 8 7 7 7 8 9 11 12 13 14 14 13 13 13 14 14 13 12 12 nan
nan 11 10 10 11 11 10 9 9 9 8 7 8 9 8 8 8 9 8 8 10 9 8 8 8 7 8 8 8 9 9 9 9 9 9 8 8 7 7 7 8 12 15 16 13 11 10 10 9 7 4 4 6 8 9 10 10 10 12 14 14 14 13 12 14 14 14 12 nan
nan 11 11 11 11 11 10 9 9 8 8 8 9 9 8 7 8 10 9 9 10 10 9 9 9 7 8 8 8 9 9 9 9 9 8 8 8 7 6 6 7 9 12 13 13 12 11 10 10 8 4 3 6 8 9 10 10 9 10 11 12 13 13 10 10 12 13 15 nan
nan 11 11 11 11 11 11 10 7 6 8 10 11 9 8 7 8 9 9 10 10 10 9 10 10 8 8 8 8 8 9 8 8 9 9 8 8 9 7 7 6 7 10 12 12 11 11 10 10 8 5 5 8 8 8 9 10 9 8 8 10 12 13 11 10 10 12 15 nan
nan nan nan nan nan nan nan nan nan nan nan nan nan nan nan nan nan nan nan nan nan nan nan nan nan nan nan nan nan nan nan nan nan nan nan nan nan nan nan nan nan nan nan nan nan nan nan nan nan nan nan nan nan nan nan nan nan nan nan nan nan nan nan nan nan nan nan nan nan
CAPE
nan nan nan nan nan nan nan nan nan nan nan nan nan nan nan nan nan nan nan nan nan nan nan nan nan nan nan nan nan nan nan nan nan nan nan nan nan nan nan nan nan nan nan nan nan nan nan nan nan nan nan nan nan nan nan nan nan nan nan nan nan nan nan nan nan nan nan nan nan
nan nan nan nan nan nan nan nan nan nan nan nan nan nan nan nan nan nan nan nan nan nan nan nan nan nan nan nan nan nan nan nan nan nan nan nan nan nan nan nan nan nan nan nan nan nan nan nan nan nan nan nan nan nan nan nan nan nan nan nan nan nan nan nan nan nan nan nan nan
nan nan nan nan nan nan nan nan nan nan nan nan nan nan nan nan nan nan nan nan nan nan nan nan nan nan nan nan nan nan nan nan nan nan nan nan nan nan nan nan nan nan nan nan nan nan nan nan nan nan nan nan nan nan nan nan nan nan nan nan nan nan nan nan nan nan nan nan nan
nan nan nan nan nan nan nan nan nan nan nan nan nan nan nan nan nan nan nan nan nan nan nan nan nan nan nan nan nan nan nan nan nan nan nan nan nan nan nan nan nan nan nan nan nan nan nan nan nan nan nan nan nan nan nan nan nan nan nan nan nan nan nan nan nan nan nan nan nan
nan nan nan nan nan nan nan nan nan nan nan nan nan nan nan nan nan nan nan nan nan nan nan nan nan nan nan nan nan nan nan nan nan nan nan nan nan nan nan nan nan nan nan nan nan nan nan nan nan nan nan nan nan nan nan nan nan nan nan nan nan nan nan nan nan nan nan nan nan
nan nan nan nan nan nan nan nan nan nan nan nan nan nan nan nan nan nan nan nan nan nan nan nan nan nan nan nan nan nan nan nan nan nan nan nan nan nan nan nan nan nan nan nan nan nan nan nan nan nan nan nan nan nan nan nan nan nan nan nan nan nan nan nan nan nan nan nan nan
nan nan nan nan nan nan nan nan nan nan nan nan nan nan nan nan nan nan nan nan nan nan nan nan nan nan nan nan nan nan nan nan nan nan nan nan nan nan nan nan nan nan nan nan nan nan nan nan nan nan nan nan nan nan nan nan nan nan nan nan nan nan nan nan nan nan nan nan nan
nan nan nan nan nan nan nan nan nan nan nan nan nan nan nan nan nan nan nan nan nan nan nan nan nan nan nan nan nan nan nan nan nan nan nan nan nan nan nan nan nan nan nan nan nan nan nan nan nan nan nan nan nan nan nan nan nan nan nan nan nan nan nan nan nan nan nan nan nan
nan nan nan nan nan nan nan nan nan nan nan nan nan nan nan nan nan nan nan nan nan nan nan nan nan nan nan nan nan nan nan nan nan nan nan nan nan nan nan nan nan nan nan nan nan nan nan nan nan nan nan nan nan nan nan nan nan nan nan nan nan nan nan nan nan nan nan nan nan
nan nan nan nan nan nan nan nan nan nan nan nan nan nan nan nan nan nan nan nan nan nan nan nan nan nan nan nan nan nan nan nan nan nan nan nan nan nan nan nan nan nan nan nan nan nan nan nan nan nan nan nan nan nan nan nan nan nan nan nan nan nan nan nan nan nan nan nan nan
nan nan nan nan nan nan nan nan nan nan nan nan nan nan nan nan nan nan nan nan nan nan nan nan nan nan nan nan nan nan nan nan nan nan nan nan nan nan nan nan nan nan nan nan nan nan nan nan nan nan nan nan nan nan nan nan nan nan nan nan nan nan nan nan nan nan nan nan nan
nan nan nan nan nan nan nan nan nan nan nan nan nan nan nan nan nan nan nan nan nan nan nan nan nan nan nan nan nan nan nan nan nan nan nan nan nan nan nan nan nan nan nan nan nan nan nan nan nan nan nan nan nan nan nan nan nan nan nan nan nan nan nan nan nan nan nan nan nan
nan nan nan nan nan nan nan nan nan nan nan nan nan nan nan nan nan nan nan nan nan nan nan nan nan nan nan nan nan nan nan nan nan nan nan nan nan nan nan nan nan nan nan nan nan nan nan nan nan nan nan nan nan nan nan nan nan nan nan nan nan nan nan nan nan nan nan nan nan
nan nan nan nan nan nan nan nan nan nan nan nan nan nan nan nan nan nan nan nan nan nan nan nan nan nan nan nan nan nan nan nan nan nan nan nan nan nan nan nan nan nan nan nan nan nan nan nan nan nan nan nan nan nan nan nan nan nan nan nan nan nan nan nan nan nan nan nan nan
nan nan nan nan nan nan nan nan nan nan nan nan nan nan nan nan nan nan nan nan nan nan nan nan nan nan nan nan nan nan nan nan nan nan nan nan nan nan nan nan nan nan nan nan nan nan nan nan nan nan nan nan nan nan nan nan nan nan nan nan nan nan nan nan nan nan nan nan 0
nan nan nan nan nan nan nan nan nan nan nan nan nan nan nan nan nan nan nan nan nan nan nan nan nan nan nan nan nan nan nan nan nan nan nan nan nan nan nan nan nan nan nan nan nan nan nan nan nan nan nan nan nan nan nan nan nan nan nan nan nan nan nan nan nan nan nan nan nan
nan nan nan nan nan nan nan nan nan nan nan nan nan nan nan nan nan nan nan nan nan nan nan nan nan nan nan nan nan nan nan nan nan nan nan nan nan nan nan nan nan nan nan nan nan nan nan nan nan nan nan nan nan nan nan nan nan nan nan nan nan nan nan nan nan nan nan 0 nan
nan nan nan nan nan nan nan nan nan nan nan nan nan nan nan nan nan nan nan nan nan nan nan nan nan nan nan nan nan nan nan nan nan nan nan nan nan nan nan nan nan nan nan nan nan nan nan nan nan nan nan nan nan nan nan nan nan nan nan nan nan nan nan nan nan nan nan 0 0
nan nan nan nan nan nan nan nan nan nan nan nan nan nan nan nan nan nan nan nan nan nan nan nan nan nan nan nan nan nan nan nan nan nan nan nan nan nan nan nan nan nan nan nan nan nan nan nan nan nan nan nan nan nan nan nan nan nan nan nan nan nan nan nan nan nan nan nan nan
nan nan nan nan nan nan nan nan nan nan nan nan nan nan nan nan nan nan nan nan nan nan nan nan nan nan nan nan nan nan nan nan nan nan nan nan nan nan nan nan nan nan nan nan nan nan nan nan nan nan nan nan nan nan nan nan nan nan nan nan nan nan nan nan nan nan nan nan 0
nan nan nan nan nan nan nan nan nan nan nan nan nan nan nan nan nan nan nan nan nan nan nan nan nan nan nan nan nan nan nan nan nan nan nan nan nan nan nan nan nan nan nan nan nan nan nan nan nan nan nan nan nan nan nan nan nan nan nan nan nan nan nan nan nan nan nan nan 1
nan nan nan nan nan nan nan nan nan nan nan nan nan nan nan nan nan nan nan nan nan nan nan nan nan nan nan nan nan nan nan nan nan nan nan nan nan nan nan nan nan nan nan nan nan nan nan nan nan nan nan nan nan nan nan nan nan nan nan nan nan nan nan nan nan nan nan nan 0
nan nan nan nan nan nan nan nan nan nan nan nan nan nan nan nan nan nan nan nan nan nan nan nan nan nan nan nan nan nan nan nan nan nan nan nan nan nan nan nan nan nan nan nan nan nan nan nan nan nan nan nan nan nan nan nan nan nan nan nan nan nan nan nan nan nan nan nan nan
nan nan nan nan nan nan nan nan nan nan nan nan nan nan nan nan nan nan nan nan nan nan nan nan nan nan nan nan nan nan nan nan nan nan nan nan nan nan nan nan nan nan nan nan nan nan nan nan nan nan nan nan nan nan nan nan nan nan nan nan nan nan nan nan nan nan nan nan nan
nan nan nan nan nan nan nan nan nan nan nan nan nan nan nan nan nan nan nan nan nan nan nan nan nan nan nan nan nan nan nan nan nan nan nan nan nan nan nan nan nan nan nan nan nan nan nan nan nan nan nan nan nan nan nan nan nan nan nan nan nan nan nan nan nan nan nan nan nan
nan nan nan nan nan nan nan nan nan nan nan nan nan nan nan nan nan nan nan nan nan nan nan nan nan nan nan nan nan nan nan nan nan nan nan nan nan nan nan nan nan nan nan nan nan nan nan nan nan nan nan nan nan nan nan nan nan nan nan nan nan nan nan nan nan nan nan nan nan
nan nan nan nan nan nan nan nan nan nan nan nan nan nan nan nan nan nan nan nan nan nan nan nan nan nan nan nan nan nan nan nan nan nan nan nan nan nan nan nan nan nan nan nan nan nan nan nan nan nan nan nan nan nan nan nan nan nan nan nan nan nan nan nan nan nan nan nan nan
nan nan nan nan nan nan nan nan nan nan nan nan nan nan nan nan nan nan nan nan nan nan nan nan nan nan nan nan nan nan nan nan nan nan nan nan nan nan nan nan nan nan nan nan nan nan nan nan nan nan nan nan nan nan nan nan nan nan nan nan nan nan nan nan nan nan nan nan nan
nan nan nan nan nan nan nan nan nan nan nan nan nan nan nan nan nan nan nan nan nan nan nan nan nan nan nan nan nan nan nan nan nan nan nan nan nan nan nan nan nan nan nan nan nan nan nan nan nan nan nan nan nan nan nan nan nan nan nan nan nan nan nan nan nan nan nan nan nan
nan nan nan nan nan nan nan nan nan nan nan nan nan nan nan nan nan nan nan nan nan nan nan nan nan nan nan nan nan nan nan nan nan nan nan nan nan nan nan nan nan nan nan nan nan nan nan nan nan nan nan nan nan nan nan nan nan nan nan nan nan nan nan nan nan nan nan nan nan
nan nan nan nan nan nan nan nan nan nan nan nan nan nan nan nan nan nan nan nan nan nan nan nan nan nan nan nan nan nan nan nan nan nan nan nan nan nan nan nan nan nan nan nan nan nan nan nan nan nan nan nan nan nan nan nan nan nan nan nan nan nan nan nan nan nan nan nan nan
nan nan nan nan nan nan nan nan nan nan nan nan nan nan nan nan nan nan nan nan nan nan nan nan nan nan nan nan nan nan nan nan nan nan nan nan nan nan nan nan nan nan nan nan nan nan nan nan nan nan nan nan nan nan nan nan nan nan nan nan nan nan nan nan nan nan nan nan nan
nan nan nan nan nan nan nan nan nan nan nan nan nan nan nan nan nan nan nan nan nan nan nan nan nan nan nan nan nan nan nan nan nan nan nan nan nan nan nan nan nan nan nan nan nan nan nan nan nan nan nan nan nan nan nan nan nan nan nan nan nan nan nan nan nan nan nan nan nan
nan nan nan nan nan nan nan nan nan nan nan nan nan nan nan nan nan nan nan nan nan nan nan nan nan nan nan nan nan nan nan nan nan nan nan nan nan nan nan nan nan nan nan nan nan nan nan nan nan nan nan nan nan nan nan nan nan nan nan nan nan nan nan nan nan nan nan nan nan
nan nan nan nan nan nan nan nan nan nan nan nan nan nan nan nan nan nan nan nan nan nan nan nan nan nan nan nan nan nan nan nan nan nan nan nan nan nan nan nan nan nan nan nan nan nan nan nan nan nan nan nan nan nan nan nan nan nan nan nan nan nan nan nan nan nan nan nan nan
nan nan nan nan nan nan nan nan nan nan nan nan nan nan nan nan nan nan nan nan nan nan nan nan nan nan nan nan nan nan nan nan nan nan nan nan nan nan nan nan nan nan nan nan nan nan nan nan nan nan nan nan nan nan nan nan nan nan nan nan nan nan nan nan nan nan nan nan nan
nan nan nan nan nan nan nan nan nan nan nan nan nan nan nan nan nan nan nan nan nan nan nan nan nan nan nan nan nan nan nan nan nan nan nan nan nan nan nan nan nan nan nan nan nan nan nan nan nan nan nan nan nan nan nan nan nan nan nan nan nan nan nan nan nan nan nan nan nan
nan nan nan nan nan nan nan nan nan nan nan nan nan nan nan nan nan nan nan nan nan nan nan nan nan nan nan nan nan nan nan nan nan nan nan nan nan nan nan nan nan nan nan nan nan nan nan nan nan nan nan nan nan nan nan nan nan nan nan nan nan nan nan nan nan nan nan nan nan
nan nan nan nan nan nan nan nan nan nan nan nan nan nan nan nan nan nan nan nan nan nan nan nan nan nan nan nan nan nan nan nan nan nan nan nan nan nan nan nan nan nan nan nan nan nan nan nan nan nan nan nan nan nan nan nan nan nan nan nan nan nan nan nan nan nan nan nan nan
nan nan nan nan nan nan nan nan nan nan nan nan nan nan nan nan nan nan nan nan nan nan nan nan nan nan nan nan nan nan nan nan nan nan nan nan nan nan nan nan nan nan nan nan nan nan nan nan nan nan nan nan nan nan nan nan nan nan nan nan nan nan nan nan nan nan nan nan nan
nan nan nan nan nan nan nan nan nan nan nan nan nan nan nan nan nan nan nan nan nan nan nan nan nan nan nan nan nan nan nan nan nan nan nan nan nan nan nan nan nan nan nan nan nan nan nan nan nan nan nan nan nan nan nan nan nan nan nan nan nan nan nan nan nan nan nan nan nan